Location: Boursonne
(49.2024°N, 3.0468°E)
Time: 02:50:18
(UTC+00:00)

Cosmos 1943 Rocket - Pass Details

Date: 03 March 2021
Orbit: 811 x 844 km, 71.0° (Epoch: 12 April)

Event Time Altitude Azimuth Distance (km) Brightness Sun altitude
Rises 20:42:15 0° 334° (NNW) 3,416 6.1 -30.6°
Reaches altitude 10° 20:45:01 10° 346° (NNW) 2,477 5.1 -31.0°
Enters shadow 20:48:15 25° 16° (NNE) 1,632 3.7 -31.4°
